• In Hungary
  • List of Countries
  • For 7 days
  • Water Temperature
  • Satellite Maps
  • Weather Map
  • News
  • Weather Widgets
  • user-avatar
    Login

    Hourly Weather Stanychne

    Today, 16 December, Saturday

    Time Temperature Precipitation Wind Pressure Humidity
    00:00 +4°C° 0 mm 4 mps 742 mmHg 94%
    01:00 +4°C° 0 mm 4 mps 742 mmHg 94%
    02:00 +3°C° 0 mm 5 mps 742 mmHg 94%
    03:00 +3°C° 0 mm 5 mps 742 mmHg 95%
    04:00 +3°C° 0 mm 5 mps 742 mmHg 95%
    05:00 +3°C° 0 mm 5 mps 741 mmHg 95%
    06:00 +3°C° 0 mm 6 mps 741 mmHg 94%
    07:00 +4°C° 0 mm 6 mps 741 mmHg 93%
    08:00 +4°C° 0 mm 7 mps 741 mmHg 93%
    09:00 +5°C° 0.4 mm 7 mps 741 mmHg 91%
    10:00 +5°C° 0.4 mm 7 mps 741 mmHg 89%
    11:00 +6°C° 0.4 mm 8 mps 740 mmHg 87%
    12:00 +6°C° 0.7 mm 8 mps 740 mmHg 82%
    13:00 +7°C° 0.7 mm 8 mps 739 mmHg 76%
    14:00 +8°C° 0.7 mm 9 mps 739 mmHg 71%
    15:00 +8°C° 0 mm 9 mps 739 mmHg 70%
    16:00 +8°C° 0 mm 9 mps 739 mmHg 69%
    17:00 +7°C° 0 mm 9 mps 739 mmHg 68%
    18:00 +7°C° 0 mm 9 mps 739 mmHg 71%
    19:00 +7°C° 0 mm 9 mps 739 mmHg 73%
    20:00 +7°C° 0 mm 9 mps 739 mmHg 76%
    21:00 +7°C° 0.1 mm 8 mps 739 mmHg 79%
    22:00 +7°C° 0.1 mm 8 mps 739 mmHg 82%
    23:00 +8°C° 0.1 mm 7 mps 739 mmHg 84%

    Tomorrow, 17 December, Sunday

    Time Temperature Precipitation Wind Pressure Humidity
    00:00 +8°C° 0.1 mm 7 mps 740 mmHg 85%
    01:00 +8°C° 0.1 mm 6 mps 740 mmHg 86%
    02:00 +8°C° 0.1 mm 6 mps 740 mmHg 87%
    03:00 +8°C° 0.1 mm 5 mps 740 mmHg 88%
    04:00 +8°C° 0.1 mm 5 mps 740 mmHg 88%
    05:00 +7°C° 0.1 mm 5 mps 740 mmHg 89%
    06:00 +7°C° 0.3 mm 5 mps 740 mmHg 89%
    07:00 +7°C° 0.3 mm 5 mps 740 mmHg 89%
    08:00 +7°C° 0.3 mm 5 mps 741 mmHg 90%
    09:00 +7°C° 0.7 mm 5 mps 740 mmHg 90%
    10:00 +7°C° 0.7 mm 5 mps 740 mmHg 90%
    11:00 +7°C° 0.7 mm 5 mps 740 mmHg 90%
    12:00 +7°C° 1.4 mm 5 mps 740 mmHg 90%
    13:00 +7°C° 1.4 mm 5 mps 740 mmHg 91%
    14:00 +7°C° 1.4 mm 6 mps 740 mmHg 91%
    15:00 +7°C° 1.4 mm 5 mps 740 mmHg 91%
    16:00 +7°C° 1.4 mm 5 mps 740 mmHg 91%
    17:00 +7°C° 1.4 mm 5 mps 740 mmHg 90%
    18:00 +7°C° 0.7 mm 5 mps 740 mmHg 89%
    19:00 +6°C° 0.7 mm 5 mps 740 mmHg 88%
    20:00 +6°C° 0.7 mm 5 mps 740 mmHg 87%
    21:00 +6°C° 1.1 mm 4 mps 740 mmHg 89%
    22:00 +5°C° 1.1 mm 4 mps 740 mmHg 90%
    23:00 +5°C° 1.1 mm 4 mps 740 mmHg 91%

    Day after tomorrow, 18 December, Monday

    Time Temperature Precipitation Wind Pressure Humidity
    00:00 +5°C° 1.3 mm 4 mps 739 mmHg 91%
    01:00 +4°C° 1.3 mm 4 mps 739 mmHg 92%
    02:00 +4°C° 1.3 mm 4 mps 739 mmHg 92%
    03:00 +4°C° 1.2 mm 4 mps 739 mmHg 92%
    04:00 +2°C° 1.2 mm 5 mps 739 mmHg 91%
    05:00 +2°C° 1.2 mm 5 mps 739 mmHg 90%
    06:00 +1°C° 0.7 mm 5 mps 739 mmHg 90%
    07:00 +1°C° 0.7 mm 5 mps 739 mmHg 89%
    08:00 +1°C° 0.7 mm 5 mps 739 mmHg 89%
    09:00 0°C° 0.5 mm 5 mps 739 mmHg 89%
    10:00 0°C° 0.5 mm 5 mps 739 mmHg 88%
    11:00 0°C° 0.5 mm 5 mps 739 mmHg 88%
    12:00 -1°C° 0.2 mm 6 mps 739 mmHg 88%
    13:00 -1°C° 0.2 mm 6 mps 739 mmHg 88%
    14:00 -2°C° 0.2 mm 6 mps 740 mmHg 87%
    15:00 -2°C° 0.3 mm 6 mps 740 mmHg 87%
    16:00 -2°C° 0.3 mm 6 mps 740 mmHg 87%
    17:00 -2°C° 0.3 mm 7 mps 741 mmHg 87%
    18:00 -3°C° 0.1 mm 7 mps 741 mmHg 87%
    19:00 -3°C° 0.1 mm 7 mps 742 mmHg 86%
    20:00 -3°C° 0.1 mm 7 mps 743 mmHg 86%
    21:00 -3°C° 0 mm 6 mps 743 mmHg 86%
    22:00 -3°C° 0 mm 6 mps 744 mmHg 86%
    23:00 -4°C° 0 mm 6 mps 744 mmHg 86%

    19 December, Tuesday

    Time Temperature Precipitation Wind Pressure Humidity
    00:00 -4°C° 0 mm 6 mps 745 mmHg 86%
    01:00 -4°C° 0 mm 5 mps 745 mmHg 87%
    02:00 -5°C° 0 mm 5 mps 745 mmHg 87%
    03:00 -5°C° 0 mm 5 mps 746 mmHg 86%
    04:00 -5°C° 0 mm 5 mps 746 mmHg 86%
    05:00 -5°C° 0 mm 5 mps 747 mmHg 85%
    06:00 -5°C° 0 mm 5 mps 747 mmHg 84%
    07:00 -5°C° 0 mm 5 mps 747 mmHg 84%
    08:00 -5°C° 0 mm 5 mps 748 mmHg 83%
    09:00 -5°C° 0 mm 5 mps 748 mmHg 82%
    10:00 -4°C° 0 mm 5 mps 749 mmHg 81%
    11:00 -4°C° 0 mm 5 mps 749 mmHg 80%
    12:00 -4°C° 0 mm 5 mps 749 mmHg 80%
    13:00 -3°C° 0 mm 4 mps 749 mmHg 80%
    14:00 -3°C° 0 mm 4 mps 750 mmHg 80%
    15:00 -4°C° 0 mm 4 mps 750 mmHg 81%
    16:00 -4°C° 0 mm 4 mps 750 mmHg 81%
    17:00 -4°C° 0 mm 4 mps 751 mmHg 82%
    18:00 -4°C° 0 mm 4 mps 751 mmHg 81%
    19:00 -4°C° 0 mm 4 mps 751 mmHg 80%
    20:00 -4°C° 0 mm 4 mps 752 mmHg 79%
    21:00 -4°C° 0 mm 4 mps 752 mmHg 79%
    22:00 -4°C° 0 mm 3 mps 752 mmHg 79%
    23:00 -4°C° 0 mm 3 mps 752 mmHg 78%

    20 December, Wednesday

    Time Temperature Precipitation Wind Pressure Humidity
    00:00 -4°C° 0 mm 3 mps 752 mmHg 78%
    01:00 -5°C° 0 mm 3 mps 752 mmHg 78%
    02:00 -5°C° 0 mm 3 mps 752 mmHg 78%
    03:00 -5°C° 0 mm 3 mps 752 mmHg 77%
    04:00 -5°C° 0 mm 3 mps 752 mmHg 77%
    05:00 -5°C° 0 mm 3 mps 752 mmHg 76%
    06:00 -5°C° 0 mm 3 mps 753 mmHg 75%
    07:00 -5°C° 0 mm 3 mps 753 mmHg 74%
    08:00 -5°C° 0 mm 3 mps 753 mmHg 73%
    09:00 -5°C° 0 mm 3 mps 753 mmHg 72%
    10:00 -5°C° 0 mm 3 mps 753 mmHg 70%
    11:00 -5°C° 0 mm 3 mps 753 mmHg 68%
    12:00 -5°C° 0 mm 3 mps 753 mmHg 69%
    13:00 -5°C° 0 mm 3 mps 753 mmHg 69%
    14:00 -5°C° 0 mm 3 mps 752 mmHg 70%
    15:00 -5°C° 0 mm 3 mps 752 mmHg 72%
    16:00 -4°C° 0 mm 2 mps 752 mmHg 75%
    17:00 -4°C° 0 mm 2 mps 753 mmHg 77%
    18:00 -4°C° 0 mm 2 mps 752 mmHg 78%
    19:00 -4°C° 0 mm 2 mps 752 mmHg 79%
    20:00 -4°C° 0 mm 2 mps 752 mmHg 80%
    21:00 -4°C° 0 mm 2 mps 752 mmHg 80%
    22:00 -4°C° 0 mm 2 mps 752 mmHg 81%
    23:00 -4°C° 0 mm 2 mps 752 mmHg 82%

    21 December, Thursday

    Time Temperature Precipitation Wind Pressure Humidity
    00:00 -4°C° 0 mm 2 mps 752 mmHg 82%
    01:00 -4°C° 0 mm 2 mps 751 mmHg 82%
    02:00 -4°C° 0 mm 2 mps 751 mmHg 82%
    03:00 -4°C° 0 mm 2 mps 751 mmHg 83%
    04:00 -4°C° 0 mm 2 mps 750 mmHg 83%
    05:00 -4°C° 0 mm 2 mps 750 mmHg 84%
    06:00 -5°C° 0.1 mm 3 mps 750 mmHg 86%
    07:00 -5°C° 0.1 mm 3 mps 750 mmHg 87%
    08:00 -4°C° 0.1 mm 3 mps 750 mmHg 88%
    09:00 -4°C° 0 mm 3 mps 749 mmHg 86%
    10:00 -4°C° 0 mm 4 mps 749 mmHg 85%
    11:00 -4°C° 0 mm 4 mps 749 mmHg 83%
    12:00 -4°C° 0 mm 4 mps 748 mmHg 82%
    13:00 -4°C° 0 mm 4 mps 748 mmHg 81%
    14:00 -4°C° 0 mm 4 mps 747 mmHg 79%
    15:00 -4°C° 0 mm 4 mps 747 mmHg 81%
    16:00 -4°C° 0 mm 4 mps 747 mmHg 82%
    17:00 -4°C° 0 mm 4 mps 747 mmHg 83%
    18:00 -4°C° 0.1 mm 4 mps 747 mmHg 84%
    19:00 -4°C° 0.1 mm 4 mps 747 mmHg 85%
    20:00 -4°C° 0.1 mm 4 mps 746 mmHg 86%
    21:00 -4°C° 0 mm 4 mps 746 mmHg 87%
    22:00 -4°C° 0 mm 4 mps 746 mmHg 88%
    23:00 -4°C° 0 mm 4 mps 746 mmHg 88%
    Show more